When you browse on this site, cookies collect data to enhance your experience and personalize the content and advertising you see.
Visit our Privacy Policy to learn more. By continuing to use the site, you agree to this use of cookies and data.
  • In Portugal
  • List of Countries
  • For 7 days
  • Water Temperature
  • Satellite Maps
  • Weather Map
  • Weather Widgets
  • user-avatar
    Login

    Hourly Weather Mingachevir

    Today, 22 July, Monday

    Time Temperature Precipitation Wind Pressure Humidity
    00:00 +28°C° 0 mm 4 mps 750 mmHg 68%
    01:00 +28°C° 0 mm 3 mps 750 mmHg 71%
    02:00 +27°C° 0 mm 2 mps 749 mmHg 73%
    03:00 +27°C° 0 mm 2 mps 749 mmHg 76%
    04:00 +27°C° 0 mm 1 mps 749 mmHg 74%
    05:00 +27°C° 0 mm 1 mps 749 mmHg 73%
    06:00 +28°C° 0 mm 1 mps 749 mmHg 71%
    07:00 +30°C° 0 mm 1 mps 749 mmHg 64%
    08:00 +31°C° 0 mm 1 mps 748 mmHg 56%
    09:00 +34°C° 0 mm 2 mps 748 mmHg 47%
    10:00 +36°C° 0 mm 3 mps 748 mmHg 43%
    11:00 +37°C° 0 mm 3 mps 748 mmHg 38%
    12:00 +40°C° 0 mm 4 mps 748 mmHg 33%
    13:00 +41°C° 0 mm 5 mps 747 mmHg 32%
    14:00 +42°C° 0 mm 5 mps 747 mmHg 30%
    15:00 +42°C° 0 mm 5 mps 747 mmHg 28%
    16:00 +41°C° 0 mm 6 mps 747 mmHg 30%
    17:00 +40°C° 0 mm 7 mps 747 mmHg 32%
    18:00 +40°C° 0 mm 8 mps 747 mmHg 35%
    19:00 +37°C° 0 mm 8 mps 747 mmHg 41%
    20:00 +34°C° 0 mm 7 mps 748 mmHg 47%
    21:00 +32°C° 0 mm 7 mps 748 mmHg 53%
    22:00 +30°C° 0 mm 7 mps 748 mmHg 53%
    23:00 +30°C° 0 mm 7 mps 748 mmHg 54%

    Tomorrow, 23 July, Tuesday

    Time Temperature Precipitation Wind Pressure Humidity
    00:00 +30°C° 0 mm 6 mps 748 mmHg 54%
    01:00 +30°C° 0 mm 5 mps 748 mmHg 54%
    02:00 +29°C° 0 mm 5 mps 749 mmHg 53%
    03:00 +29°C° 0 mm 4 mps 749 mmHg 53%
    04:00 +29°C° 0 mm 4 mps 749 mmHg 53%
    05:00 +29°C° 0 mm 4 mps 749 mmHg 53%
    06:00 +29°C° 0 mm 4 mps 749 mmHg 54%
    07:00 +32°C° 0 mm 4 mps 749 mmHg 48%
    08:00 +34°C° 0 mm 5 mps 749 mmHg 43%
    09:00 +35°C° 0 mm 5 mps 749 mmHg 38%
    10:00 +38°C° 0 mm 6 mps 748 mmHg 36%
    11:00 +39°C° 0 mm 6 mps 748 mmHg 33%
    12:00 +40°C° 0 mm 7 mps 748 mmHg 31%
    13:00 +40°C° 0 mm 7 mps 747 mmHg 30%
    14:00 +41°C° 0 mm 7 mps 746 mmHg 29%
    15:00 +41°C° 0 mm 8 mps 746 mmHg 29%
    16:00 +40°C° 0 mm 8 mps 746 mmHg 31%
    17:00 +39°C° 0 mm 8 mps 746 mmHg 32%
    18:00 +38°C° 0 mm 8 mps 746 mmHg 34%
    19:00 +35°C° 0 mm 8 mps 746 mmHg 40%
    20:00 +33°C° 0 mm 7 mps 747 mmHg 45%
    21:00 +30°C° 0 mm 7 mps 747 mmHg 51%
    22:00 +29°C° 0 mm 6 mps 747 mmHg 52%
    23:00 +29°C° 0 mm 5 mps 747 mmHg 54%

    Day after tomorrow, 24 July, Wednesday

    Time Temperature Precipitation Wind Pressure Humidity
    00:00 +28°C° 0 mm 4 mps 747 mmHg 56%
    01:00 +28°C° 0 mm 4 mps 747 mmHg 56%
    02:00 +27°C° 0 mm 3 mps 746 mmHg 57%
    03:00 +27°C° 0 mm 3 mps 746 mmHg 58%
    04:00 +27°C° 0 mm 3 mps 746 mmHg 57%
    05:00 +27°C° 0 mm 2 mps 747 mmHg 56%
    06:00 +27°C° 0 mm 2 mps 747 mmHg 55%
    07:00 +29°C° 0 mm 2 mps 747 mmHg 50%
    08:00 +31°C° 0 mm 2 mps 746 mmHg 45%
    09:00 +33°C° 0 mm 3 mps 746 mmHg 40%
    10:00 +35°C° 0 mm 2 mps 746 mmHg 37%
    11:00 +36°C° 0 mm 2 mps 745 mmHg 34%
    12:00 +37°C° 0 mm 2 mps 745 mmHg 31%
    13:00 +38°C° 0 mm 2 mps 745 mmHg 30%
    14:00 +39°C° 0 mm 2 mps 744 mmHg 29%
    15:00 +39°C° 0 mm 1 mps 744 mmHg 27%
    16:00 +39°C° 0 mm 1 mps 744 mmHg 28%
    17:00 +39°C° 0 mm 2 mps 744 mmHg 29%
    18:00 +39°C° 0 mm 2 mps 744 mmHg 30%
    19:00 +37°C° 0 mm 2 mps 745 mmHg 33%
    20:00 +35°C° 0 mm 2 mps 745 mmHg 37%
    21:00 +34°C° 0 mm 3 mps 746 mmHg 40%
    22:00 +31°C° 0 mm 3 mps 746 mmHg 45%
    23:00 +30°C° 0 mm 3 mps 746 mmHg 49%

    25 July, Thursday

    Time Temperature Precipitation Wind Pressure Humidity
    00:00 +28°C° 0 mm 3 mps 746 mmHg 53%
    01:00 +28°C° 0 mm 2 mps 746 mmHg 56%
    02:00 +27°C° 0 mm 2 mps 746 mmHg 59%
    03:00 +26°C° 0 mm 1 mps 746 mmHg 62%
    04:00 +27°C° 0 mm 1 mps 746 mmHg 60%
    05:00 +28°C° 0 mm 1 mps 746 mmHg 59%
    06:00 +28°C° 0 mm 1 mps 747 mmHg 57%
    07:00 +30°C° 0 mm 2 mps 747 mmHg 53%
    08:00 +33°C° 0 mm 3 mps 747 mmHg 48%
    09:00 +35°C° 0 mm 4 mps 747 mmHg 44%
    10:00 +36°C° 0 mm 4 mps 747 mmHg 40%
    11:00 +37°C° 0 mm 4 mps 746 mmHg 37%
    12:00 +39°C° 0 mm 3 mps 746 mmHg 33%
    13:00 +40°C° 0 mm 3 mps 745 mmHg 31%
    14:00 +42°C° 0 mm 3 mps 745 mmHg 28%
    15:00 +43°C° 0 mm 3 mps 745 mmHg 26%
    16:00 +42°C° 0 mm 3 mps 745 mmHg 25%
    17:00 +42°C° 0 mm 3 mps 745 mmHg 24%
    18:00 +42°C° 0 mm 3 mps 745 mmHg 24%
    19:00 +38°C° 0 mm 3 mps 745 mmHg 28%
    20:00 +36°C° 0 mm 4 mps 746 mmHg 33%
    21:00 +33°C° 0 mm 5 mps 746 mmHg 38%
    22:00 +31°C° 0 mm 3 mps 747 mmHg 41%
    23:00 +30°C° 0 mm 2 mps 747 mmHg 44%

    26 July, Friday

    Time Temperature Precipitation Wind Pressure Humidity
    00:00 +28°C° 0 mm 1 mps 747 mmHg 48%
    01:00 +28°C° 0 mm 1 mps 747 mmHg 48%
    02:00 +28°C° 0 mm 1 mps 747 mmHg 49%
    03:00 +27°C° 0 mm 1 mps 747 mmHg 50%
    04:00 +28°C° 0 mm 2 mps 748 mmHg 51%
    05:00 +28°C° 0 mm 3 mps 748 mmHg 51%
    06:00 +28°C° 0 mm 3 mps 748 mmHg 52%
    07:00 +29°C° 0 mm 3 mps 748 mmHg 47%
    08:00 +31°C° 0 mm 3 mps 747 mmHg 43%
    09:00 +34°C° 0 mm 3 mps 747 mmHg 38%
    10:00 +35°C° 0 mm 3 mps 747 mmHg 36%
    11:00 +36°C° 0 mm 3 mps 746 mmHg 33%
    12:00 +38°C° 0 mm 3 mps 746 mmHg 30%
    13:00 +38°C° 0 mm 3 mps 745 mmHg 29%
    14:00 +39°C° 0 mm 3 mps 745 mmHg 28%
    15:00 +39°C° 0 mm 3 mps 745 mmHg 27%
    16:00 +40°C° 0 mm 4 mps 745 mmHg 29%
    17:00 +39°C° 0 mm 5 mps 745 mmHg 30%
    18:00 +38°C° 0 mm 6 mps 745 mmHg 32%
    19:00 +35°C° 0 mm 6 mps 745 mmHg 37%
    20:00 +33°C° 0 mm 6 mps 746 mmHg 43%
    21:00 +30°C° 0 mm 7 mps 746 mmHg 49%
    22:00 +29°C° 0 mm 6 mps 746 mmHg 52%
    23:00 +28°C° 0 mm 5 mps 746 mmHg 56%

    27 July, Saturday

    Time Temperature Precipitation Wind Pressure Humidity
    00:00 +27°C° 0 mm 4 mps 746 mmHg 59%
    01:00 +27°C° 0 mm 3 mps 746 mmHg 61%
    02:00 +26°C° 0 mm 2 mps 746 mmHg 62%
    03:00 +26°C° 0 mm 1 mps 746 mmHg 64%
    04:00 +26°C° 0 mm 2 mps 746 mmHg 63%
    05:00 +27°C° 0 mm 2 mps 746 mmHg 61%
    06:00 +27°C° 0 mm 2 mps 746 mmHg 60%
    07:00 +28°C° 0 mm 2 mps 746 mmHg 55%
    08:00 +30°C° 0 mm 2 mps 746 mmHg 49%
    09:00 +31°C° 0 mm 2 mps 745 mmHg 43%
    10:00 +34°C° 0 mm 2 mps 745 mmHg 40%
    11:00 +35°C° 0 mm 2 mps 745 mmHg 37%
    12:00 +36°C° 0 mm 3 mps 745 mmHg 34%
    13:00 +37°C° 0 mm 3 mps 744 mmHg 33%
    14:00 +37°C° 0 mm 2 mps 744 mmHg 32%
    15:00 +37°C° 0 mm 2 mps 743 mmHg 31%
    16:00 +37°C° 0.2 mm 2 mps 743 mmHg 33%
    17:00 +36°C° 0.2 mm 2 mps 743 mmHg 36%
    18:00 +36°C° 0.2 mm 2 mps 743 mmHg 38%
    19:00 +34°C° 0 mm 3 mps 744 mmHg 41%
    20:00 +33°C° 0 mm 3 mps 744 mmHg 45%
    21:00 +30°C° 0 mm 4 mps 745 mmHg 49%
    22:00 +29°C° 0 mm 4 mps 745 mmHg 52%
    23:00 +28°C° 0 mm 3 mps 745 mmHg 54%
    Show more